Powrót do katalogu

THORAD DELTA 1 DEB

AktywnySSO
NORAD 8165·DEBRIS·🇺🇸 United States

Wystrzelony Nov 15, 1974 z Vandenberg Space Force Base

Loading…

Następne Przeloty (najbliższe 24 godziny)

TLE

ŚwieżeSource: Space-Track

Epoka: Sep 14, 2026, 07:38 UTC

1 08165U 74089AF  26257.31866802 -.00000024  00000-0  13301-3 0  9992
2 08165 101.7165 199.6680 0018152  69.4695  85.2086 12.50214944363900

Śledź THORAD DELTA 1 DEB w czasie rzeczywistym z AllMySat

Download on the App Store